Theta_e
344 344 346 349 349 349 349 349 350 349 349 349 349 348 348 348 348 347 346 346 347 347 346 345 343 342 342 341 341 340 340 339 338 340 339 342 342 341 341 340 339 344 342 341 341 342 343 342 343 342 343 342 341 341 341 342 343 342 343 342 343 343 344 344 343 342 341 341 340 341 341 342 343 342 343 343 342 342 342 342 339 336 335 337 341
343 345 345 347 350 350 350 349 349 349 349 349 349 349 348 348 347 347 347 347 346 346 343 342 341 341 341 341 340 338 338 339 339 339 339 338 339 339 338 338 341 344 344 343 342 342 342 342 341 341 342 341 340 340 343 342 342 342 342 341 341 342 343 343 342 341 340 339 340 340 340 341 342 342 342 342 342 342 341 339 339 334 333 339 339
345 344 345 346 350 350 349 349 349 349 349 349 349 348 348 348 348 348 348 347 346 345 344 342 342 342 341 340 338 339 339 340 340 337 336 336 337 337 337 338 337 342 342 342 342 342 341 341 340 340 339 339 339 338 338 340 340 341 341 341 340 341 341 341 341 341 341 339 339 339 339 341 340 341 341 341 342 342 341 340 339 339 335 338 337
343 343 344 347 349 349 350 349 349 349 349 349 348 347 348 348 347 348 347 346 346 345 344 343 342 340 340 340 339 339 339 339 338 337 337 337 337 337 338 338 337 339 339 339 339 339 339 339 338 338 338 338 337 336 339 339 339 340 340 340 340 340 341 341 341 341 342 342 340 342 335 333 338 341 341 341 342 342 341 339 339 339 339 338 337
343 343 344 346 346 348 350 350 349 348 348 349 348 348 347 348 348 348 347 347 345 344 343 342 341 339 338 338 338 338 338 338 336 336 337 337 338 336 336 337 339 339 339 339 338 338 337 337 337 337 336 336 336 335 337 337 338 339 338 338 338 338 339 339 339 341 341 341 342 343 332 333 334 340 340 342 341 340 340 340 339 338 337 337 336
343 343 343 344 344 345 348 350 349 348 348 348 348 348 347 348 348 348 347 346 345 344 343 342 341 340 339 339 339 338 338 337 338 338 337 337 337 336 335 339 340 339 338 338 337 336 335 335 334 335 336 335 335 335 336 336 338 338 338 337 336 337 337 337 339 339 340 340 343 333 332 332 333 338 341 341 341 340 340 340 340 339 337 337 337
343 342 340 340 344 345 347 348 350 349 348 348 348 348 348 348 348 347 347 346 345 344 343 341 340 340 338 338 337 337 337 337 337 338 337 336 336 335 336 337 336 337 336 337 336 336 335 335 336 336 336 336 336 336 336 337 338 338 337 336 336 336 337 337 338 339 342 340 333 332 332 333 334 336 341 340 340 340 340 340 340 339 338 336 336
341 341 340 340 342 345 346 348 348 349 348 348 348 348 347 348 347 347 346 346 345 344 342 341 340 340 339 337 338 337 337 336 337 335 336 336 335 336 335 335 336 336 337 336 336 335 335 335 336 336 336 336 336 336 336 336 338 337 336 336 336 335 336 336 338 339 340 335 332 333 332 333 334 336 339 340 339 339 339 339 339 338 337 338 336
340 338 339 339 341 344 345 346 348 346 346 347 348 347 348 348 347 347 346 345 345 344 343 341 339 339 338 339 338 336 336 336 336 335 336 337 336 335 335 335 335 335 335 336 335 335 335 336 336 336 336 336 336 336 336 336 338 337 336 336 335 335 336 338 339 340 334 331 330 331 332 334 333 333 338 340 340 340 340 340 340 338 337 336 335
342 338 338 340 342 343 344 346 347 346 347 347 347 346 345 345 346 346 345 344 344 343 342 341 339 337 338 338 338 336 336 337 336 337 336 335 334 334 334 335 334 335 335 335 334 335 335 335 336 336 335 335 335 336 336 337 337 337 336 335 335 336 336 337 338 336 331 329 330 329 335 340 332 333 337 338 339 340 339 340 339 338 337 335 335
342 338 337 341 342 343 345 347 347 347 347 346 346 346 345 345 345 344 343 344 344 343 341 340 339 337 338 338 337 336 337 337 336 336 336 334 334 334 335 335 334 334 335 334 334 334 334 335 335 336 335 335 335 334 335 335 336 337 336 335 334 335 334 339 337 329 329 329 328 328 337 340 334 331 337 337 338 339 338 339 338 337 337 336 336
341 340 340 340 344 342 344 346 347 347 347 346 346 345 345 345 345 345 343 343 344 342 341 341 339 338 339 338 336 336 337 337 335 335 334 333 335 335 334 335 334 334 334 334 335 334 334 334 334 335 335 335 334 334 334 334 336 337 336 335 334 334 336 335 328 326 328 328 327 332 334 335 336 338 337 339 338 339 339 339 338 338 337 337 335
341 342 342 339 341 342 343 345 346 347 347 346 345 345 345 344 345 344 342 342 344 342 341 340 340 339 339 338 335 336 336 336 336 334 335 334 334 334 335 333 333 333 333 333 334 334 333 334 334 334 334 334 334 334 333 335 336 337 336 335 334 333 334 333 324 327 327 327 328 332 334 334 334 340 339 338 338 338 338 337 338 338 337 336 336
341 344 342 339 341 344 342 343 344 345 346 347 346 345 344 344 344 343 342 343 344 342 341 340 340 339 339 339 336 336 336 336 335 334 335 335 334 335 334 334 334 334 333 333 333 333 334 334 334 334 334 333 333 333 333 334 335 337 336 335 333 333 332 330 329 325 324 326 327 328 333 334 334 338 339 338 337 337 336 336 337 338 338 336 335
341 345 342 339 342 343 344 341 343 343 345 345 346 345 343 343 343 343 341 341 342 342 342 341 340 340 339 339 338 338 338 337 336 335 339 336 333 334 333 334 333 334 333 333 334 334 333 333 333 334 333 333 332 332 332 333 335 336 336 335 334 333 331 327 325 326 327 325 324 327 329 331 338 338 337 337 337 337 335 335 336 336 337 335 335
343 345 345 344 342 344 343 344 340 341 342 343 343 344 344 343 342 342 342 341 341 342 343 342 341 340 340 340 339 339 338 337 338 339 338 337 332 334 333 334 333 334 334 333 333 333 333 333 333 334 333 333 332 333 332 333 334 336 335 334 333 331 330 327 323 324 323 322 324 324 325 330 336 335 335 336 336 336 336 334 334 335 335 334 335
343 343 344 344 343 343 343 343 340 338 338 340 340 341 343 343 343 343 343 343 343 344 344 343 342 343 341 341 341 339 340 340 341 340 338 338 335 337 338 334 334 334 334 333 333 333 333 332 332 333 333 333 332 332 332 332 333 335 335 333 332 331 328 326 324 322 322 325 323 323 321 326 332 334 333 333 333 335 335 336 334 334 334 334 336
343 343 342 344 343 343 343 343 341 340 341 338 337 339 341 343 342 343 343 343 345 345 344 344 343 343 341 340 341 341 340 342 341 339 338 338 336 335 336 335 333 334 334 334 334 333 333 332 333 333 333 332 332 331 332 331 332 332 332 332 329 329 326 325 320 321 321 328 322 324 322 331 331 331 331 332 333 333 335 335 335 334 334 334 334
341 342 342 343 342 343 343 343 342 342 342 341 339 338 337 339 340 341 342 341 343 343 342 342 342 341 340 339 340 340 339 339 338 337 337 337 335 334 334 336 333 333 334 334 333 333 333 333 333 333 332 332 332 332 332 332 331 329 329 328 327 325 323 321 320 320 321 322 320 321 320 331 329 329 330 331 333 333 334 334 335 334 334 334 334
340 341 340 342 342 342 342 343 343 342 342 341 340 339 335 336 337 339 340 340 341 340 339 338 338 337 337 336 335 335 335 334 334 333 333 334 335 331 332 335 336 334 333 334 334 334 334 333 333 332 332 332 332 332 332 332 331 329 327 328 325 323 317 317 318 320 321 321 323 321 331 330 329 329 329 330 332 333 333 334 335 335 335 334 334
340 340 339 340 342 342 341 342 342 342 342 342 341 340 338 334 334 334 336 337 338 337 336 333 332 330 330 330 332 334 333 333 332 332 330 331 327 326 330 334 337 337 336 334 334 336 334 333 333 333 333 333 334 334 334 332 331 330 328 325 321 317 319 319 319 320 321 321 324 321 331 331 329 329 329 330 331 332 332 332 334 335 335 335 334
336 336 338 340 341 341 341 342 342 342 342 343 343 342 339 335 337 336 336 336 334 332 334 338 338 336 328 331 333 333 332 331 332 335 330 330 327 324 327 331 333 335 336 336 335 336 335 333 333 333 333 334 332 328 329 330 330 329 326 321 317 318 320 319 319 320 321 321 323 325 332 331 329 329 329 329 331 332 332 331 333 335 335 335 334
335 335 336 338 339 340 342 342 342 342 342 342 343 342 339 337 338 337 337 334 338 338 339 339 339 339 335 335 332 332 332 332 332 332 332 327 330 324 327 329 331 331 334 335 336 334 334 336 334 335 335 333 329 328 327 326 327 327 325 321 318 319 320 320 319 321 321 320 321 330 333 331 330 330 329 330 331 332 332 332 332 334 335 335 335
334 335 335 339 339 338 339 341 342 342 342 341 342 342 338 338 338 338 336 337 337 338 338 338 339 339 338 336 334 334 334 334 337 336 336 332 329 324 325 326 328 328 329 331 332 333 334 334 334 334 333 330 329 328 327 326 327 326 324 323 321 321 321 320 320 322 321 323 323 331 333 332 331 330 330 331 332 332 331 331 331 332 335 335 335
334 336 336 336 337 338 338 339 341 342 341 341 341 340 340 338 338 338 337 336 335 336 336 336 336 335 338 338 337 336 336 336 334 333 332 332 330 327 326 326 326 325 325 324 326 327 328 326 327 327 325 326 325 326 325 323 326 325 323 322 322 322 321 320 321 321 322 322 322 328 331 332 332 331 331 331 332 332 332 332 332 332 333 335 335
333 333 334 335 337 338 338 338 340 340 340 340 340 339 340 338 337 336 336 335 334 333 333 333 333 335 335 336 335 335 334 334 333 332 332 331 329 329 328 327 327 327 326 325 325 324 326 325 326 326 325 324 324 324 325 323 323 324 323 322 322 322 322 321 321 323 322 321 322 326 328 331 332 332 332 331 332 333 333 333 333 333 333 334 335
331 331 334 335 336 337 337 338 338 339 339 340 340 339 338 338 338 337 336 335 334 333 333 333 333 334 334 334 332 331 331 331 332 332 331 332 330 328 329 329 328 327 327 326 325 325 324 325 325 325 324 324 324 324 325 324 323 322 321 320 321 322 321 322 321 321 321 321 322 323 327 332 332 333 332 332 333 333 334 334 334 335 335 334 334
331 331 332 333 333 336 337 338 337 338 338 339 338 338 337 337 337 336 337 335 333 333 332 333 334 333 333 332 331 331 329 329 330 330 331 332 330 329 327 327 328 327 326 327 326 324 324 324 324 323 324 324 324 324 324 324 323 322 320 319 319 320 321 320 321 321 321 321 322 322 324 330 332 333 333 333 333 333 334 335 335 335 336 335 334
331 331 332 333 333 335 337 337 337 338 339 338 336 337 337 336 336 335 335 334 334 334 332 332 332 331 332 331 330 331 329 329 329 329 329 330 330 329 327 326 325 324 325 324 324 323 322 323 323 323 323 323 322 323 323 322 321 321 321 320 321 321 321 320 320 320 321 321 321 321 322 325 330 332 333 333 333 334 334 335 335 335 335 336 335
332 332 332 332 334 334 334 336 336 337 338 338 336 336 336 336 336 335 336 335 334 334 333 331 331 330 328 331 331 330 328 327 328 329 329 327 327 328 327 326 324 324 323 324 323 323 322 322 322 323 322 321 321 321 320 320 320 320 320 320 321 321 321 320 320 319 320 321 322 322 320 322 326 330 332 333 333 333 334 334 335 336 336 336 336
332 332 332 333 333 334 333 334 336 334 336 336 336 336 336 336 336 336 336 335 335 334 333 332 331 329 329 330 331 330 329 327 327 328 327 327 327 327 327 327 326 325 324 324 325 324 323 322 322 322 321 320 320 319 319 319 319 319 320 320 321 320 320 320 319 320 320 320 321 321 322 320 322 326 330 333 333 333 333 334 335 335 336 336 336
332 332 333 334 334 334 333 334 334 334 334 335 335 336 335 335 335 336 336 336 336 334 333 333 329 330 330 330 330 330 329 328 326 327 327 327 326 326 325 326 325 326 326 324 324 324 323 323 323 323 321 321 320 320 321 319 318 319 320 320 321 320 319 319 319 319 319 320 320 321 321 321 319 322 325 330 333 333 333 334 334 335 336 337 337
333 334 334 334 334 334 334 334 334 333 334 335 335 335 334 335 335 335 335 335 335 334 334 333 332 331 331 331 330 330 329 328 327 327 326 325 326 326 326 326 327 327 327 325 325 324 323 322 323 323 321 320 320 319 320 320 319 319 319 320 320 320 320 319 319 319 320 320 321 321 321 321 320 319 321 324 327 331 333 333 333 334 335 336 337
332 333 335 334 335 336 335 335 334 333 333 333 333 333 333 333 334 335 333 333 333 333 332 333 332 331 330 330 331 330 328 329 328 326 326 325 326 326 326 326 327 327 328 327 325 323 322 321 321 321 319 320 319 319 318 318 318 319 319 319 319 319 319 319 319 319 320 320 321 321 322 322 321 320 319 320 322 326 331 332 333 333 334 335 336
332 332 333 334 335 335 336 335 333 333 332 332 331 331 332 332 331 332 332 332 333 333 333 333 332 331 330 329 331 330 329 329 328 327 326 325 324 324 325 326 327 327 327 325 324 324 323 322 320 320 320 318 318 318 319 319 319 319 319 318 318 318 319 318 318 318 318 319 320 321 321 322 322 322 322 319 319 321 324 329 332 333 333 334 334
333 333 334 335 334 335 334 334 333 333 332 332 332 332 332 332 332 330 331 332 331 332 332 332 332 331 330 328 329 330 329 330 329 329 326 326 325 324 325 325 326 326 325 325 325 323 322 322 321 321 319 318 319 319 318 318 318 318 317 318 318 318 318 319 319 319 319 319 320 320 321 321 322 321 319 322 321 319 320 324 328 332 331 332 333
333 333 333 334 334 334 333 333 333 333 333 332 332 331 331 331 332 331 332 331 331 331 332 332 331 331 330 328 329 329 329 330 330 330 328 327 326 325 325 325 326 325 324 324 324 324 324 323 321 320 320 318 318 318 318 318 318 318 318 318 318 317 317 317 317 318 319 319 319 320 320 321 321 316 322 322 322 322 319 319 323 327 328 328 331
332 333 334 334 334 334 333 333 333 334 334 333 332 331 331 331 331 330 329 330 330 331 331 331 330 330 330 329 329 329 328 329 330 329 329 328 326 325 325 325 326 325 324 323 323 324 324 323 320 320 320 319 318 318 318 318 319 319 318 318 318 317 318 318 318 316 318 318 319 319 320 320 320 321 321 322 322 322 322 320 320 321 322 323 326
333 333 334 334 334 333 333 332 333 333 334 333 332 331 331 330 330 329 329 329 329 330 329 329 329 329 330 330 329 329 328 329 330 329 329 328 327 326 325 325 325 325 324 323 322 321 321 322 321 320 321 321 320 318 318 318 319 319 318 318 318 319 319 319 318 318 318 318 318 318 320 320 320 321 321 321 322 322 322 322 320 319 320 319 322
330 332 331 333 333 332 333 333 332 333 333 333 332 331 329 328 327 327 327 327 328 328 329 329 328 329 330 330 330 330 329 328 329 329 329 328 327 326 326 326 325 324 323 322 322 321 321 321 321 320 320 320 319 319 319 318 317 316 316 317 318 319 319 318 318 318 318 318 318 318 318 319 319 320 321 321 321 321 321 322 320 321 320 319 319
328 329 329 330 332 332 331 332 333 333 332 331 331 330 328 327 327 326 326 327 327 327 328 328 328 328 329 330 330 330 329 328 328 328 328 326 328 329 327 326 326 325 324 323 323 322 322 322 321 320 319 319 319 320 320 318 315 315 316 316 316 318 318 317 318 318 318 319 319 318 318 318 318 319 319 320 320 320 321 321 322 322 322 321 320
326 327 327 328 330 331 331 332 333 332 333 332 332 331 330 329 327 327 326 326 326 325 326 327 328 328 328 329 329 330 329 328 327 328 327 328 327 327 327 327 326 326 325 324 323 321 321 321 321 320 320 319 318 318 319 318 314 313 310 310 311 315 317 318 317 318 319 319 319 318 318 318 318 319 319 319 319 320 320 320 321 322 322 322 322
327 326 327 328 328 329 330 331 332 332 332 332 332 331 331 330 329 327 327 326 328 328 328 327 328 328 328 329 329 330 330 329 328 327 328 327 327 327 326 326 326 326 325 324 324 322 322 321 321 320 318 319 319 320 319 319 315 312 311 310 308 307 309 314 317 318 318 318 319 318 318 318 319 319 319 318 319 319 320 320 320 321 321 321 321
321 324 326 327 328 328 328 329 330 332 331 332 330 332 331 331 330 329 329 328 326 327 328 328 328 327 327 329 329 329 330 329 329 327 327 327 327 327 326 326 326 326 326 324 324 323 322 322 322 321 320 317 317 318 320 319 317 313 307 309 306 304 305 305 311 315 318 318 318 318 318 318 319 319 318 318 318 319 319 320 320 320 320 321 320
318 318 321 325 327 327 328 329 329 330 331 330 330 331 330 329 329 328 327 327 326 326 326 326 327 327 327 327 328 329 329 329 329 329 327 327 327 327 326 326 326 326 326 325 324 324 324 323 323 321 321 319 317 317 318 320 319 319 314 306 305 305 305 306 307 308 315 315 316 317 317 317 318 318 318 319 319 319 319 320 320 320 320 320 320
318 318 319 321 324 325 327 328 329 329 330 330 330 330 329 329 328 326 325 325 324 324 324 325 325 326 326 328 328 328 329 329 329 329 328 326 327 327 327 326 326 326 326 326 325 325 324 323 323 323 322 322 320 318 317 318 320 319 319 318 312 307 306 307 307 304 309 315 316 317 318 318 319 318 319 319 319 319 319 320 320 320 320 320 320
319 320 320 319 321 323 326 328 328 328 329 329 330 328 329 329 329 328 327 326 325 326 328 328 328 328 328 327 328 328 328 328 328 329 329 327 327 327 327 326 326 326 325 325 325 325 325 325 324 323 323 322 321 319 318 318 317 319 319 319 318 315 310 309 307 306 306 307 312 315 316 318 319 319 319 319 319 320 320 320 320 320 320 320 320
321 321 321 321 320 320 323 327 327 326 328 329 329 329 328 328 328 328 327 327 326 326 327 328 329 328 328 328 328 328 328 328 328 328 329 328 327 327 327 326 326 326 325 325 325 326 326 326 324 324 324 323 322 320 319 319 317 317 318 317 317 317 316 314 312 311 307 306 309 311 312 315 317 319 319 319 320 320 320 320 320 320 320 320 320
318 320 321 321 321 320 320 323 326 325 326 327 328 328 327 327 328 328 327 327 328 327 326 326 327 327 327 328 328 329 329 329 329 328 328 328 326 327 327 326 326 326 324 325 325 326 325 325 324 323 323 323 322 322 320 319 319 318 315 316 316 316 316 315 315 313 310 307 308 309 310 310 314 317 319 320 320 321 320 321 321 320 319 319 320
318 319 320 322 322 321 320 321 323 325 325 327 327 328 327 326 326 327 327 326 326 326 325 324 325 326 326 327 328 328 328 328 328 328 328 328 327 326 326 326 326 326 323 325 325 325 325 325 325 324 324 323 323 322 321 321 321 320 319 316 314 315 314 315 315 315 314 313 309 308 310 309 309 310 314 317 317 319 320 320 320 319 319 319 319
315 317 318 321 322 321 320 319 321 323 324 326 326 327 327 326 325 325 326 325 325 325 324 323 324 324 325 326 327 328 328 328 329 328 328 328 328 327 326 326 326 325 323 324 324 325 325 325 325 325 323 323 323 323 320 321 321 320 320 319 317 315 314 313 314 314 313 311 311 310 311 312 311 311 313 314 314 316 317 318 318 318 318 319 319
Wind_Speed
10 12 10 14 14 15 15 15 13 13 14 14 14 14 14 13 13 13 13 14 13 13 13 11 11 10 10 10 12 12 12 12 11 11 10 13 13 13 13 13 13 15 13 12 11 12 12 12 12 13 14 15 15 15 15 15 15 15 15 15 15 15 14 13 14 15 14 14 14 14 13 13 14 13 14 14 13 12 9 12 13 8 5 10 15
13 11 9 10 14 15 15 15 14 14 14 14 14 15 15 14 13 13 13 13 13 13 13 12 11 10 10 11 11 11 12 12 12 11 12 11 10 11 11 11 14 14 15 15 14 11 10 11 11 11 12 13 13 14 14 15 15 14 14 15 14 13 12 12 11 11 11 12 14 14 13 13 14 13 13 13 13 13 11 14 13 6 4 13 14
12 11 9 11 14 14 15 15 14 14 15 15 15 15 14 14 14 13 13 13 13 13 13 12 11 11 11 11 11 11 12 12 12 11 10 11 10 10 10 11 11 14 13 14 12 11 11 10 9 10 10 11 11 12 12 13 13 13 13 14 13 11 11 11 10 9 9 12 14 14 13 14 14 13 12 12 13 13 12 13 12 9 7 13 13
13 10 9 11 13 12 13 14 13 14 15 15 15 14 14 14 14 14 13 13 13 13 12 11 9 8 9 10 9 10 13 12 11 10 10 10 10 10 10 11 11 11 12 11 11 11 10 9 8 9 10 11 10 11 12 11 12 12 12 12 11 10 10 9 8 7 6 4 5 5 4 5 8 12 12 11 13 13 10 13 13 13 13 12 13
13 11 10 9 9 10 13 14 14 14 15 15 14 14 14 13 14 13 13 13 12 12 11 11 10 10 10 10 9 10 11 11 11 10 10 10 11 10 8 11 12 12 12 11 11 11 10 9 10 9 10 10 10 11 11 11 11 11 11 11 10 9 9 8 7 7 6 4 2 2 6 5 5 11 11 11 12 10 9 9 11 11 12 13 13
12 11 11 10 8 8 10 14 14 15 16 16 14 14 13 14 14 14 13 13 13 13 12 11 11 11 10 9 10 10 10 10 11 11 10 10 10 9 8 12 13 11 10 10 11 11 9 9 9 9 10 10 9 10 10 11 11 10 10 9 8 8 8 7 7 7 7 8 6 4 5 4 5 5 11 10 10 9 10 10 11 10 11 12 12
13 10 10 10 8 8 9 11 16 14 15 15 15 14 14 13 14 14 14 13 13 12 11 9 9 9 9 8 10 11 9 10 11 10 9 9 9 9 8 9 9 11 11 11 10 10 9 10 10 9 10 10 10 10 10 10 10 9 9 8 7 7 6 6 5 5 5 5 2 4 6 6 4 3 11 9 10 9 9 9 10 10 10 11 11
10 9 9 9 9 10 10 10 12 16 16 15 14 14 13 14 13 13 13 12 12 12 11 10 9 9 10 9 10 10 9 10 10 9 9 9 8 8 8 6 8 10 11 10 10 9 9 9 9 9 9 9 10 10 9 9 9 8 8 7 6 5 6 5 5 4 5 2 4 5 4 5 5 3 8 8 8 8 8 8 9 10 10 10 10
11 10 10 9 10 15 12 11 12 14 15 15 14 14 13 13 13 12 12 11 11 11 11 10 9 8 9 10 10 9 8 10 9 9 10 10 8 8 7 7 6 9 10 10 10 9 9 9 8 8 9 9 9 9 9 8 8 7 7 6 5 5 7 8 9 10 6 2 4 5 4 1 4 3 7 7 7 9 8 8 8 11 10 9 9
11 10 10 8 10 15 13 13 13 15 15 14 14 13 13 13 12 12 11 11 10 10 10 10 9 7 8 10 10 9 9 10 10 9 9 7 7 8 8 7 6 7 9 10 8 9 8 8 8 7 7 8 8 8 8 8 7 6 6 6 4 6 8 10 10 7 4 5 4 4 4 8 5 5 6 6 6 7 9 9 8 6 6 9 8
11 10 9 9 13 15 15 14 13 15 16 15 14 14 14 12 12 11 11 11 11 10 10 10 9 8 9 10 10 9 10 9 9 9 8 8 7 6 7 7 5 5 7 8 8 8 8 8 7 7 7 7 6 6 6 6 6 5 5 5 4 6 8 8 9 5 5 4 4 3 4 11 5 3 7 6 7 8 7 8 7 6 6 7 7
10 10 10 10 14 16 15 14 14 15 15 15 14 13 13 12 10 10 11 12 11 11 10 10 9 9 10 10 8 9 9 9 7 9 7 6 7 7 8 7 6 5 5 6 8 8 8 7 7 6 6 6 5 5 4 5 5 5 5 4 4 6 7 8 6 3 4 5 3 3 7 6 4 3 6 6 6 6 6 6 5 6 6 6 6
10 9 10 11 11 14 14 14 13 13 13 13 13 13 12 12 11 9 10 11 12 11 10 10 10 10 10 10 8 7 8 9 8 7 9 7 7 6 6 6 6 6 5 6 7 7 7 7 6 5 5 5 4 3 4 4 4 4 4 4 3 5 7 9 5 4 4 4 3 1 6 5 3 5 4 5 5 5 5 5 5 5 5 5 6
8 10 9 11 9 13 14 13 12 12 12 11 12 12 12 12 12 10 10 13 11 11 10 10 9 9 8 10 9 8 8 8 7 5 9 7 8 7 8 7 6 6 5 4 6 6 6 7 6 5 4 4 3 2 2 3 3 3 3 4 3 4 7 6 7 3 3 4 3 3 3 5 3 5 4 3 3 4 4 4 4 5 4 3 5
10 11 10 9 9 9 13 13 12 12 11 11 10 11 11 11 12 11 11 12 11 11 11 10 10 9 7 10 9 10 10 10 8 8 5 5 6 7 5 6 6 6 5 5 5 4 5 6 6 5 5 4 3 2 1 1 2 2 2 3 2 3 5 4 5 2 1 2 3 3 4 3 6 6 4 3 1 1 2 3 4 4 4 3 4
9 11 10 9 9 8 8 10 12 11 11 11 10 10 10 11 11 11 11 11 12 11 10 10 10 9 8 7 10 9 10 10 10 10 8 7 5 7 5 6 6 6 7 6 5 4 4 5 6 6 5 4 4 4 2 2 3 3 2 2 1 2 5 3 4 6 1 2 1 1 1 3 7 5 3 2 2 2 1 1 2 3 2 3 4
7 10 9 10 10 8 7 7 8 10 10 10 9 9 9 9 9 10 9 10 11 12 12 11 10 9 9 7 6 6 2 10 9 11 11 8 8 7 5 6 7 7 6 6 5 5 5 5 5 6 5 5 4 4 4 3 3 3 2 2 1 2 4 5 4 5 4 2 1 2 3 3 5 6 4 1 0 3 3 3 3 3 4 3 4
6 7 8 10 10 10 8 7 7 7 6 7 8 9 9 9 9 9 8 8 8 9 11 10 9 8 9 8 7 7 6 7 10 11 11 9 8 8 7 8 6 6 5 6 6 6 7 6 5 5 5 5 5 5 5 5 3 2 2 2 1 1 3 4 3 5 5 2 1 2 1 4 5 5 3 2 4 4 5 5 5 4 4 4 5
7 6 7 10 10 10 9 8 7 6 7 6 5 7 10 10 9 8 8 8 8 8 9 8 9 7 9 8 8 7 7 7 8 10 9 8 9 9 9 9 9 7 8 7 7 7 6 6 6 5 6 6 5 5 5 6 4 2 1 1 1 3 3 3 3 5 6 1 2 3 2 6 5 3 2 3 4 5 6 7 7 7 5 6 6
5 7 5 8 8 9 9 8 9 7 6 6 7 6 9 10 9 7 8 9 9 9 8 9 8 7 9 9 8 6 7 5 8 6 8 9 9 7 9 8 9 9 7 8 7 8 7 7 7 7 7 7 6 6 6 6 5 3 1 1 3 2 2 3 4 5 6 4 3 4 6 9 6 5 3 4 5 6 6 7 9 8 8 7 7
4 5 4 6 8 8 8 8 9 9 9 7 7 7 8 11 8 8 8 8 8 8 8 9 9 7 8 9 8 5 4 4 6 4 7 5 8 8 10 8 7 7 7 8 8 7 7 8 8 8 8 7 6 3 5 7 6 5 4 3 2 3 4 5 5 6 7 5 4 3 7 6 6 5 4 6 7 7 7 8 9 10 9 10 9
6 5 5 5 7 6 8 8 8 10 9 7 6 7 7 9 9 6 5 6 5 6 6 5 6 4 8 6 5 5 5 5 6 6 6 6 6 7 8 8 7 6 7 6 4 2 4 7 7 8 8 7 6 4 4 6 9 8 6 5 3 4 5 6 6 7 4 4 5 4 9 9 7 7 7 8 7 9 9 8 9 11 11 11 10
7 6 5 6 6 7 7 8 10 10 9 8 6 6 9 7 6 7 6 7 6 6 5 5 5 5 6 6 5 4 5 5 6 7 6 10 8 9 9 8 7 6 7 7 5 4 3 4 7 8 8 7 5 5 5 5 5 9 8 4 4 5 5 7 7 7 5 4 4 6 9 10 9 9 9 9 10 9 10 9 9 11 12 12 11
8 7 6 6 7 6 7 7 8 9 8 7 6 6 7 7 6 7 6 7 7 6 5 6 6 6 7 5 5 5 6 6 6 14 10 7 7 11 11 10 8 7 7 5 5 5 5 5 3 4 4 3 5 6 6 6 6 6 6 6 6 6 6 7 7 6 5 4 5 8 11 11 11 10 11 11 11 10 10 10 10 10 10 12 13
8 8 7 8 8 7 6 7 8 8 7 6 6 6 7 7 7 7 7 7 7 7 6 6 6 6 7 7 6 7 5 6 4 6 6 6 6 6 7 6 6 5 7 4 5 5 5 5 4 5 4 5 5 6 6 6 7 7 7 7 7 7 7 7 8 5 5 5 6 10 11 12 12 12 13 13 13 12 12 12 12 12 11 11 13
7 8 8 8 8 8 8 6 7 6 7 6 6 6 8 7 6 6 7 7 7 7 7 7 6 7 6 7 8 7 6 6 5 6 6 6 6 6 6 6 5 5 6 6 6 5 5 6 6 6 6 6 6 6 6 7 6 8 8 8 7 5 5 5 4 5 6 6 6 11 13 13 12 13 14 15 15 15 14 14 13 13 13 13 13
8 8 9 8 9 9 8 7 8 7 8 6 6 6 6 6 6 6 6 6 6 7 7 6 6 6 6 6 6 6 6 7 6 6 7 6 5 6 7 7 6 7 7 7 6 6 6 6 6 6 6 7 7 7 7 7 6 4 4 4 4 6 5 5 5 4 5 6 7 11 13 13 15 15 16 16 17 16 16 15 15 15 15 15 14
7 8 9 9 10 11 9 8 7 7 6 7 6 6 5 6 6 7 6 6 6 6 7 7 7 8 7 6 5 5 6 6 5 6 7 6 6 6 6 7 7 7 7 8 7 7 7 7 6 7 7 6 6 6 7 6 5 4 4 3 3 3 5 6 6 5 6 5 5 9 13 15 15 15 17 18 18 18 18 18 17 17 17 17 17
9 9 8 9 10 11 11 10 8 8 8 7 6 5 5 5 5 5 6 5 6 6 6 6 7 6 7 7 5 6 6 6 6 6 6 7 7 7 7 7 7 7 7 7 8 8 7 7 6 5 5 5 6 6 4 4 3 3 5 5 5 5 5 5 5 6 6 7 6 7 12 15 16 16 18 19 19 20 20 20 19 19 19 19 18
9 9 8 8 8 10 12 12 10 9 8 8 6 6 6 6 6 5 6 5 5 5 5 6 6 6 6 7 7 6 6 6 6 6 6 5 6 6 7 7 7 5 5 6 6 7 7 7 6 6 6 6 5 4 4 4 4 4 4 4 5 6 7 7 6 6 6 6 6 8 11 14 16 17 18 19 20 20 21 21 21 20 20 20 20
9 9 8 7 7 10 9 11 11 8 7 8 7 7 7 6 6 6 5 6 6 6 6 5 5 6 7 7 8 7 5 5 6 6 6 6 5 4 6 6 6 7 6 6 6 7 7 7 7 7 6 6 6 4 4 4 4 4 4 5 5 5 5 6 6 6 7 6 6 7 9 13 15 17 18 19 21 21 21 22 22 22 22 22 22
9 9 8 7 7 10 10 10 11 10 9 8 7 8 7 7 7 7 7 7 6 6 6 6 5 6 5 6 7 7 7 6 5 5 6 7 7 7 5 4 5 6 7 6 7 7 7 6 6 6 6 6 7 6 6 5 5 5 4 5 5 7 7 6 6 6 6 6 7 8 8 8 12 17 18 19 20 21 21 22 22 23 23 23 23
6 9 9 10 10 10 11 11 11 10 11 10 8 7 6 6 6 7 7 7 7 7 7 7 6 5 5 6 7 8 8 8 7 6 6 6 7 7 6 6 6 6 6 5 7 7 6 6 6 5 5 5 6 6 5 6 6 6 6 7 7 7 7 7 7 6 7 7 7 7 6 7 7 12 18 19 20 20 21 22 23 23 24 24 24
7 7 9 11 9 7 8 8 10 11 12 9 8 8 8 7 7 6 6 6 6 6 6 6 6 6 6 6 7 8 8 8 7 6 6 6 6 7 7 8 7 6 6 7 7 6 6 5 6 6 6 6 6 6 6 6 6 6 7 6 6 6 6 7 7 8 8 8 7 8 8 8 7 7 9 16 19 19 21 22 23 24 24 25 25
7 7 10 10 10 8 8 8 10 10 11 10 10 9 8 7 7 6 7 7 6 7 6 6 6 6 7 7 8 7 8 7 7 6 6 6 6 6 7 7 7 8 8 7 7 5 6 5 5 6 6 6 6 6 7 7 7 8 8 7 8 7 7 7 6 6 7 7 7 8 8 9 9 8 8 7 13 20 21 21 23 25 25 25 25
10 9 9 9 10 9 10 8 11 11 12 12 9 9 9 8 7 6 6 7 7 7 7 6 7 7 7 6 7 7 7 7 7 6 6 7 7 7 7 6 6 6 7 6 5 6 5 5 6 6 7 6 6 7 7 7 7 8 6 7 8 8 9 8 9 9 8 7 8 9 9 9 9 8 8 8 8 11 20 21 22 24 24 25 25
9 9 10 10 10 10 11 9 13 13 12 12 10 8 8 8 8 8 7 6 8 7 7 8 8 8 7 6 7 7 6 7 8 7 7 7 7 7 6 6 6 6 5 6 6 7 6 7 8 8 7 7 7 8 7 9 9 9 8 9 8 7 8 7 7 8 7 10 10 9 9 10 9 10 9 9 9 7 13 20 22 23 23 23 24
9 9 10 11 11 10 10 10 9 11 10 11 11 10 9 8 7 7 7 7 6 8 8 8 9 8 9 7 6 8 8 8 8 8 7 7 6 6 5 6 6 6 7 7 8 7 8 8 7 6 6 6 7 8 9 8 7 7 8 10 8 7 8 8 8 8 8 9 9 10 10 9 9 10 10 10 10 10 9 13 20 22 23 22 23
9 10 10 9 8 8 8 9 8 10 9 10 10 9 8 7 6 6 7 8 7 6 7 8 7 8 9 9 8 8 9 10 10 9 8 7 6 6 5 5 7 7 7 7 7 7 7 7 8 7 7 9 9 8 7 6 6 6 7 8 7 8 8 9 9 10 10 10 10 10 7 10 9 10 10 10 10 10 10 9 8 9 13 22 22
8 9 9 10 10 8 8 9 8 9 8 8 9 8 8 8 8 7 7 8 8 8 8 7 7 7 7 9 9 9 9 10 10 10 9 8 6 6 6 5 6 7 8 8 8 7 8 7 8 9 8 8 8 7 6 6 6 6 8 7 8 9 10 10 10 11 10 10 11 9 10 10 9 11 11 10 9 10 10 10 9 9 9 13 21
7 9 9 9 11 10 10 11 10 9 9 9 10 10 10 8 7 9 10 9 9 8 8 7 7 6 6 7 8 8 8 10 10 9 9 9 8 8 8 7 7 6 8 10 9 9 9 9 8 7 9 9 7 7 7 5 5 7 7 8 8 7 11 10 11 10 11 11 10 10 10 9 11 11 11 9 9 10 9 9 10 9 9 8 12
7 8 10 11 10 10 11 10 10 10 10 11 10 10 10 11 11 11 9 8 8 9 9 8 8 6 7 7 7 7 8 9 10 10 9 10 10 9 9 9 9 9 7 7 8 9 8 8 7 7 7 9 8 6 7 6 7 9 6 5 6 7 11 11 13 14 14 12 11 11 11 11 12 11 9 9 10 11 11 10 10 10 10 9 9
10 10 10 9 10 11 10 10 10 11 11 11 10 11 10 9 9 7 9 6 7 7 7 7 7 8 8 9 9 8 9 8 9 11 10 10 10 9 9 8 8 8 8 8 8 10 10 10 9 9 6 6 7 5 7 10 8 3 4 3 8 4 4 8 11 14 13 13 11 11 11 12 14 12 9 8 10 11 11 11 11 11 10 10 9
7 8 9 11 10 10 10 11 10 11 10 11 11 11 10 9 8 6 7 7 6 6 7 7 7 8 10 10 8 9 10 9 8 9 9 9 10 10 9 9 9 8 9 9 9 10 9 10 10 9 7 7 7 9 9 9 8 6 3 9 4 1 9 5 8 8 12 14 13 14 11 12 12 11 8 11 11 10 10 10 12 12 11 11 10
8 8 10 10 9 12 12 12 11 12 11 11 12 9 8 7 7 4 5 5 3 6 6 8 9 9 8 9 12 10 9 9 9 9 10 11 10 10 10 10 10 10 9 9 10 11 10 9 11 11 12 10 8 6 8 10 11 10 8 2 2 2 7 3 2 6 7 9 12 13 11 12 11 11 11 12 10 10 10 10 10 10 11 11 10
10 10 10 11 10 10 11 11 10 10 11 11 12 9 9 9 8 8 8 8 8 8 10 12 11 11 13 11 9 10 11 10 9 10 10 10 11 12 11 10 10 10 10 10 9 9 11 12 12 11 12 12 10 6 7 9 13 13 14 11 6 6 2 1 3 5 3 6 7 10 11 12 11 11 11 11 10 10 9 10 9 10 10 10 10
11 10 10 9 9 10 11 12 11 10 10 10 12 10 9 9 11 12 11 11 11 10 10 9 10 10 8 9 10 10 11 12 11 10 10 11 11 11 12 12 11 10 10 10 11 12 11 12 10 11 11 9 9 11 13 8 6 11 13 15 14 9 3 0 7 2 8 4 4 7 8 10 10 11 12 11 10 10 9 9 10 10 10 9 10
10 9 9 9 10 10 9 11 10 10 10 10 12 12 12 11 11 10 10 10 11 12 12 10 8 8 9 11 9 10 11 11 11 11 11 11 11 12 12 12 12 11 10 11 12 11 9 9 10 11 10 10 12 13 11 8 10 9 10 12 13 11 11 6 5 7 6 8 12 6 5 5 6 10 11 11 11 10 10 10 10 10 9 9 9
8 9 8 9 10 10 10 10 11 11 10 11 11 12 12 12 11 10 10 10 12 11 8 7 8 8 9 9 9 10 10 11 12 12 12 12 12 12 12 12 12 12 11 11 12 11 11 11 11 12 12 11 11 11 9 11 10 10 5 9 9 10 9 9 8 6 9 8 13 11 12 3 7 9 9 10 9 9 10 10 10 11 10 9 9
8 8 8 8 9 9 10 11 11 10 9 10 11 12 12 10 10 10 12 11 10 9 7 7 8 8 10 9 9 9 9 10 12 13 12 12 13 12 12 13 13 12 11 12 11 10 11 12 12 12 12 13 11 11 12 10 9 10 9 6 8 8 7 7 9 10 9 11 13 8 8 9 9 5 7 9 8 9 10 10 11 10 9 9 9
7 8 8 9 9 9 10 11 11 9 9 10 11 12 12 11 11 12 13 13 13 11 8 7 7 7 9 10 9 9 9 10 10 10 12 12 13 12 12 13 12 11 11 11 12 12 11 11 10 10 11 14 11 12 12 11 10 10 11 10 10 10 11 10 10 9 9 8 9 13 12 11 11 10 10 6 6 9 10 10 11 9 9 9 9
Wind_Direction
134 132 138 147 147 146 146 148 148 144 143 144 141 139 133 130 132 127 125 121 119 120 117 113 115 115 113 108 101 100 95 89 91 89 85 94 82 78 73 79 81 62 64 75 80 78 77 80 82 83 80 75 75 79 79 77 73 73 71 70 71 73 74 70 68 67 65 71 73 71 67 66 64 67 72 73 69 59 47 67 70 61 50 60 62
134 132 136 145 145 144 146 148 147 145 144 141 142 138 136 135 131 126 123 124 128 123 114 116 117 117 112 106 102 102 97 94 87 83 81 80 87 86 84 80 84 78 70 67 68 72 74 76 81 84 84 80 78 84 79 76 75 75 72 71 70 74 78 76 70 66 79 82 77 70 65 65 65 65 74 76 72 62 58 69 72 69 66 69 66
125 133 141 142 143 146 145 146 147 145 145 143 142 140 137 133 131 131 131 132 126 120 119 119 121 121 120 114 112 114 110 104 99 98 100 94 86 90 100 101 90 87 85 83 80 77 78 80 84 86 84 85 86 84 83 81 78 72 72 71 70 71 73 73 66 60 53 77 90 82 65 65 63 62 72 78 76 66 60 68 71 72 74 76 73
131 134 139 140 142 143 140 143 145 143 145 142 142 141 136 135 135 135 134 129 125 123 122 121 121 116 114 110 115 115 102 101 96 91 94 102 109 100 92 90 92 88 87 83 79 77 77 81 89 82 82 86 89 89 87 84 78 72 73 73 71 67 64 59 55 56 56 54 99 28 76 62 66 68 69 76 75 66 57 64 66 69 71 71 72
130 134 137 139 138 143 142 141 144 144 143 143 145 138 137 137 136 136 132 129 127 122 120 120 121 119 114 114 112 110 116 113 111 109 106 98 94 96 104 103 95 88 83 84 81 76 75 83 89 92 92 88 89 101 98 90 84 77 73 71 71 67 55 46 35 26 14 2 357 119 95 89 76 73 76 78 74 67 62 67 72 71 72 71 73
137 134 143 141 141 143 146 139 143 146 145 145 143 140 142 138 139 137 134 131 126 126 127 131 129 127 128 126 129 106 104 109 118 122 111 109 105 108 109 107 105 99 93 87 84 84 87 90 95 98 95 98 102 102 105 100 91 83 74 69 63 60 56 37 22 10 353 343 346 93 120 103 89 81 80 78 80 74 68 65 65 65 72 73 69
132 135 149 142 140 144 151 147 143 145 146 144 144 142 145 144 143 142 139 135 131 129 133 134 128 123 120 107 107 115 127 124 108 100 99 93 102 112 99 99 101 101 92 88 86 90 94 98 101 102 104 104 102 100 105 100 93 84 78 67 52 43 36 30 11 352 322 316 75 61 80 94 92 100 88 78 79 82 79 68 67 63 64 72 74
122 139 149 144 140 149 156 150 145 147 147 146 144 148 147 146 148 144 144 142 138 135 137 134 133 128 131 129 128 135 141 117 117 114 116 111 107 97 105 98 95 99 102 96 91 90 99 100 104 108 104 106 111 107 101 101 95 88 81 68 44 19 6 5 335 317 304 301 80 75 70 102 110 88 83 81 77 76 79 75 72 60 62 80 75
137 146 146 144 140 152 155 149 146 149 150 149 149 150 147 148 147 147 145 142 142 141 138 138 136 147 142 141 144 137 119 121 114 121 123 121 120 117 110 108 105 109 104 101 99 99 95 98 99 108 116 115 108 110 106 101 95 91 82 69 40 1 354 344 344 341 324 145 83 76 58 343 111 90 90 92 84 73 74 66 64 65 59 68 77
145 144 142 141 147 154 152 151 152 150 149 149 150 153 152 153 154 153 148 144 146 145 143 142 142 152 151 143 136 137 139 133 133 131 117 111 108 112 122 117 100 106 107 106 109 100 101 97 100 101 108 114 115 114 111 102 95 94 85 69 35 355 355 348 336 317 265 91 86 67 42 46 85 94 95 85 85 75 76 86 85 82 83 78 79
150 141 137 138 151 155 151 152 154 152 150 151 154 155 155 157 161 159 153 154 152 145 142 145 149 153 150 144 151 151 142 132 134 130 127 127 131 122 114 113 114 101 113 121 115 114 105 99 99 94 95 105 110 116 114 103 98 89 83 70 25 358 355 348 333 310 14 56 69 96 72 71 72 92 105 98 90 84 78 81 91 97 93 84 82
151 140 130 140 152 155 152 153 153 154 151 153 155 159 160 161 164 166 162 162 155 146 149 151 147 155 154 156 163 151 142 140 145 137 131 134 127 132 130 133 128 134 124 124 122 122 116 113 110 105 94 94 90 98 106 111 100 95 86 66 25 1 346 349 332 339 13 45 48 37 70 66 56 64 108 115 104 102 111 115 116 99 91 93 86
152 129 126 135 149 156 154 153 154 153 153 153 156 158 160 163 166 168 170 155 154 151 153 156 156 160 163 153 154 148 143 144 150 145 136 150 141 130 123 129 140 139 135 138 130 129 131 127 114 111 112 101 99 96 107 119 113 95 94 86 43 352 337 344 335 347 16 27 1 6 95 90 89 98 92 112 133 127 116 108 103 99 95 95 101
137 106 127 137 146 155 155 153 153 153 153 155 156 156 158 161 166 166 167 154 161 159 156 161 165 168 165 153 158 156 152 149 151 153 142 163 147 153 147 154 153 154 151 152 148 147 137 136 132 136 126 130 114 97 122 116 118 111 94 87 61 337 355 339 312 15 7 359 18 360 73 100 100 111 100 90 113 124 121 107 116 122 119 114 103
121 120 130 136 142 153 157 153 152 151 153 154 157 157 160 161 164 165 165 166 163 165 164 166 167 172 174 158 161 167 162 162 166 158 137 142 156 154 151 155 144 152 162 170 161 161 159 153 148 152 151 144 134 127 133 164 157 139 122 90 57 338 3 336 329 329 98 16 337 347 70 95 118 109 107 103 116 206 184 143 135 133 143 133 106
127 130 136 131 145 151 155 157 151 153 155 156 157 156 162 163 163 170 168 169 168 168 169 169 171 170 173 168 170 173 171 168 169 154 150 155 194 149 174 163 167 175 178 174 166 183 183 186 164 167 161 169 169 172 172 217 208 182 148 131 91 344 323 6 310 313 17 185 273 330 54 127 128 106 93 137 168 199 260 179 193 166 170 180 163
129 131 134 138 148 149 155 158 157 152 154 154 155 156 161 163 166 171 175 173 177 171 170 175 174 172 167 180 175 149 159 169 162 155 160 168 169 158 175 173 193 175 180 165 167 189 200 196 196 172 182 181 194 194 194 193 220 203 182 169 147 325 321 341 319 311 328 82 38 349 19 118 123 106 119 300 253 235 221 243 220 210 204 185 203
124 140 139 146 153 154 158 161 155 155 154 151 156 158 161 166 171 173 179 181 168 168 171 176 178 174 171 173 171 153 143 141 151 158 164 170 165 170 168 182 202 177 179 189 195 191 192 205 221 199 196 203 212 209 210 212 177 180 193 186 181 249 282 316 304 292 299 140 119 284 100 149 125 127 151 192 245 233 246 232 235 235 234 225 210
138 160 148 151 161 161 161 161 162 166 159 160 162 171 168 169 173 175 181 182 167 168 171 181 180 181 176 174 166 153 143 146 152 161 168 158 162 171 174 181 187 196 200 194 203 199 198 209 211 211 211 215 218 222 217 218 167 164 181 231 214 243 265 279 275 276 277 217 189 229 174 155 150 148 177 228 243 238 240 242 237 235 234 227 227
149 157 165 152 165 171 161 161 165 172 166 173 172 169 176 167 172 170 179 179 169 173 171 177 183 181 176 171 165 153 149 155 159 158 162 163 164 167 176 181 192 192 208 206 206 209 209 206 212 213 216 220 221 224 218 208 171 167 172 287 268 271 265 245 249 259 265 251 212 217 167 169 170 166 200 239 242 243 239 244 241 236 232 234 229
154 171 170 157 167 172 166 159 169 176 172 180 171 169 180 167 174 167 170 175 173 166 168 178 180 175 173 174 171 170 172 171 175 172 165 167 178 171 174 179 198 199 200 207 219 226 222 215 211 213 220 217 216 194 144 175 184 187 190 217 269 266 247 240 238 243 250 237 254 182 169 170 180 184 212 231 243 246 246 246 245 237 236 235 233
172 180 177 174 165 172 181 159 176 179 177 178 175 171 170 179 169 168 168 169 166 156 161 173 188 171 179 177 179 190 190 187 179 192 174 178 183 173 181 180 186 172 158 165 166 172 238 233 228 226 226 223 169 148 186 194 200 200 208 210 229 234 244 243 244 245 236 228 232 206 174 177 198 204 225 235 240 245 243 240 246 243 236 235 237
175 178 180 184 182 173 184 179 173 181 179 178 177 171 161 177 174 168 169 168 168 168 175 186 191 186 185 179 190 199 213 205 186 185 176 182 179 179 180 186 187 186 188 180 178 187 202 241 240 225 222 215 164 189 194 201 209 213 211 214 233 230 234 247 246 233 229 240 245 187 180 185 202 212 226 234 239 243 251 248 242 245 240 235 235
174 175 174 186 188 182 183 186 176 177 176 178 173 160 159 174 176 173 173 174 171 177 194 193 195 198 181 189 191 211 207 223 200 177 187 176 173 183 184 187 195 197 198 198 196 194 199 213 244 226 192 194 181 201 218 197 197 196 206 214 215 225 226 240 247 221 212 228 234 194 189 192 196 205 221 230 236 240 245 247 241 241 249 245 235
172 164 174 187 189 187 187 184 180 174 179 172 169 162 159 173 188 179 172 172 174 175 189 202 201 203 178 191 199 209 207 214 204 166 173 168 165 176 185 189 192 200 196 199 198 205 207 209 215 209 203 200 213 224 225 220 187 187 200 205 207 211 221 232 238 223 218 226 231 199 196 200 203 210 219 226 231 235 241 245 240 236 240 246 240
164 172 180 183 191 192 190 185 175 175 179 170 173 172 163 177 186 176 176 173 174 177 184 194 198 201 197 188 199 201 206 200 201 163 175 181 178 169 181 186 188 199 184 202 206 208 203 208 204 207 211 208 218 227 227 232 204 189 196 200 201 212 227 240 232 220 220 222 225 205 199 199 207 219 227 227 228 232 235 239 245 242 232 232 240
179 181 174 184 189 196 194 184 180 177 180 171 171 174 175 176 180 176 173 190 173 177 184 187 196 196 197 194 198 203 194 193 199 171 184 184 191 186 178 184 196 198 186 193 200 206 211 205 207 210 205 202 213 225 231 229 219 199 198 198 198 207 216 239 257 252 236 225 225 218 207 206 209 218 228 230 229 230 232 235 237 240 241 236 231
175 184 175 182 184 191 194 187 186 176 175 182 177 172 176 179 182 174 182 191 185 183 185 184 191 196 188 192 196 213 200 192 193 189 180 183 197 193 193 178 193 201 191 183 193 197 205 213 200 200 203 207 211 218 224 226 224 214 226 229 227 220 221 224 233 252 261 252 235 226 214 213 213 214 222 228 231 230 231 233 235 237 236 238 238
176 186 176 181 184 183 186 190 191 176 176 183 188 173 179 188 184 172 183 195 193 190 193 185 192 185 175 179 188 210 216 193 196 201 186 190 193 190 188 199 201 197 187 190 184 191 197 199 208 207 200 207 212 231 242 248 230 216 207 218 218 224 230 230 228 232 241 255 259 247 221 214 213 213 218 225 230 232 232 232 233 234 235 237 237
180 179 180 185 178 180 184 186 190 188 178 178 188 180 182 191 193 186 183 196 201 194 199 210 195 178 177 181 192 200 204 202 198 200 195 201 195 196 194 196 195 200 190 198 193 184 191 193 197 203 202 206 211 220 223 247 253 243 229 221 216 218 218 220 227 230 238 242 251 260 244 221 217 216 217 221 227 231 232 232 233 233 234 235 237
171 179 181 185 178 175 184 183 187 186 186 182 185 188 185 193 193 189 192 196 194 195 203 215 208 185 184 180 185 195 209 209 200 195 196 206 213 206 199 188 191 194 204 206 197 194 192 191 198 199 196 198 206 212 224 239 244 248 241 236 233 224 224 221 223 225 230 235 239 246 252 235 223 222 221 221 224 229 231 232 232 233 234 234 235
176 180 177 176 180 177 180 181 184 182 186 188 180 187 192 197 193 191 197 196 183 193 205 212 221 208 194 180 182 188 202 218 209 203 192 192 202 213 206 201 204 198 200 205 203 196 190 197 201 203 198 193 199 203 213 231 244 245 249 246 235 231 229 228 227 225 229 232 235 239 240 242 229 225 226 225 224 226 229 232 233 233 233 234 234
188 175 173 174 185 177 178 183 183 177 183 187 181 186 194 202 200 197 198 192 185 186 200 207 213 212 212 195 189 187 189 204 217 210 201 192 191 195 201 207 211 207 210 216 204 194 190 197 209 202 198 181 188 205 204 210 229 238 236 236 228 228 224 222 226 227 230 233 236 241 248 242 236 230 230 228 228 230 229 231 235 236 235 234 235
184 176 170 177 180 178 174 179 182 176 182 186 181 186 196 203 202 202 196 186 186 190 201 204 208 215 214 210 194 188 186 190 203 215 209 205 200 195 197 203 201 205 217 223 207 187 187 198 208 199 205 193 196 199 199 218 225 231 239 243 242 234 225 225 221 223 224 226 226 233 240 247 241 227 229 233 231 231 231 231 234 237 238 237 236
179 180 182 176 175 176 173 179 180 178 177 186 185 185 190 202 201 200 195 186 189 201 203 204 209 220 222 213 195 189 189 187 194 203 210 207 209 211 208 201 195 198 208 206 185 192 197 213 203 204 203 205 207 205 202 214 220 228 229 228 238 238 239 238 228 228 226 228 225 232 235 239 241 236 226 219 230 231 232 232 233 237 239 240 238
181 182 177 173 178 176 176 179 175 181 180 186 187 183 187 195 200 207 203 191 193 194 197 200 206 219 230 216 197 191 190 191 193 199 208 208 212 213 211 204 200 193 197 195 182 195 203 219 221 198 199 213 207 222 211 221 221 229 225 226 227 221 228 232 235 237 235 231 232 234 232 234 233 232 230 227 218 224 228 230 232 234 237 239 240
179 175 176 177 180 176 173 179 174 182 180 183 183 187 189 196 197 204 210 197 195 197 199 200 201 208 227 219 197 190 194 196 199 204 209 211 214 216 211 205 203 204 199 196 198 199 203 214 218 206 190 204 209 219 218 219 224 229 230 232 226 217 224 222 225 226 226 231 235 235 236 235 235 237 237 237 235 228 220 225 229 232 235 236 238
179 175 175 179 182 176 175 181 173 180 180 181 183 184 191 198 201 202 207 216 205 199 203 199 198 199 209 220 195 188 193 198 200 208 215 216 214 211 210 207 203 205 205 197 202 197 205 206 214 213 204 207 222 222 225 220 219 224 226 227 226 221 231 234 235 237 231 234 230 232 233 237 234 234 233 233 234 233 233 221 224 229 231 232 234
176 177 171 175 177 177 171 179 174 178 177 177 177 179 183 195 202 204 204 214 223 217 205 203 200 195 199 204 198 190 189 192 198 202 212 216 219 217 210 207 202 204 202 203 205 203 202 202 204 215 212 214 217 219 218 218 231 233 230 231 227 231 234 234 232 232 231 233 234 237 235 238 236 238 238 235 234 233 233 234 219 223 231 230 231
170 176 173 168 177 177 171 175 182 176 177 169 169 176 181 190 194 201 212 211 213 216 217 215 204 203 197 196 199 195 189 191 193 198 206 210 215 216 218 217 211 198 201 208 211 207 211 209 212 206 214 222 215 213 215 228 245 244 248 248 236 234 233 231 228 227 229 230 234 234 238 239 236 240 237 238 237 235 233 233 231 226 224 227 227
169 172 176 176 175 179 172 180 184 179 176 176 175 179 186 187 195 202 208 205 207 208 214 216 214 212 206 205 203 198 191 191 192 194 202 204 211 214 214 221 222 212 205 211 208 211 209 209 213 204 213 222 229 216 222 204 232 261 253 257 259 243 242 237 237 236 233 235 234 234 235 235 235 238 238 239 238 236 235 233 233 232 228 223 226
187 176 179 184 179 177 183 181 176 186 186 185 181 184 187 191 190 199 197 199 199 201 209 210 212 210 209 214 210 206 198 192 193 194 199 202 207 213 214 214 217 225 223 211 208 210 208 209 204 222 212 216 229 198 208 172 232 232 252 288 271 256 242 239 238 240 236 237 232 230 230 231 236 237 235 229 234 236 237 236 235 232 232 229 225
181 183 185 178 182 186 187 182 181 185 192 187 182 191 191 193 193 195 192 199 205 202 203 205 203 207 209 210 212 212 210 204 188 193 197 201 206 208 215 214 216 218 224 223 213 209 207 207 203 210 216 223 228 211 203 190 228 196 227 306 277 289 275 231 240 237 232 234 227 228 226 230 234 231 227 227 232 234 234 231 231 230 231 229 229
179 180 184 186 186 190 191 185 185 185 190 194 193 194 192 190 189 180 186 188 191 193 196 202 206 206 214 210 212 210 210 210 196 191 196 199 201 207 208 215 219 215 217 222 221 220 206 207 206 209 201 222 211 224 207 201 196 137 232 212 237 232 301 259 234 242 223 227 220 227 223 229 232 232 229 233 233 232 233 229 230 230 230 230 229
191 192 190 189 192 192 191 186 186 186 190 194 194 183 175 182 180 178 168 189 188 185 192 210 207 209 213 210 214 208 208 208 206 197 196 200 201 205 207 211 213 216 216 220 221 221 214 208 205 206 206 212 221 213 212 202 206 198 197 147 244 256 231 268 5 272 201 218 225 227 226 229 230 230 229 236 232 231 232 233 232 231 230 228 228
194 200 198 193 188 189 188 187 187 188 191 192 188 181 181 179 171 177 185 188 198 193 201 205 199 204 210 210 209 206 208 210 207 205 198 199 203 204 207 209 212 212 215 219 221 216 214 211 208 205 211 211 219 223 230 208 209 207 216 225 187 193 218 253 33 284 319 227 226 226 224 224 226 228 231 234 229 231 228 236 234 234 230 228 228
201 196 197 195 191 188 187 186 188 190 191 187 182 183 185 185 186 189 191 191 196 211 214 207 200 209 205 205 208 203 205 206 209 207 205 201 204 205 207 210 212 214 212 214 220 218 215 214 207 208 213 207 209 226 228 213 210 225 217 224 237 240 165 286 252 337 300 308 261 234 231 228 221 226 233 230 230 230 232 230 235 234 231 227 227
198 193 190 187 191 193 186 187 189 190 189 185 180 183 188 189 190 191 192 196 203 214 212 210 204 196 201 205 201 203 202 203 206 209 210 206 205 207 208 209 213 215 210 215 220 219 216 216 207 210 209 208 210 220 227 212 207 228 217 223 231 240 242 232 227 238 260 290 281 268 255 248 225 232 231 231 227 226 232 229 232 233 232 227 223
193 193 189 186 190 194 191 188 190 190 190 185 181 186 189 191 192 190 194 206 208 219 215 201 199 200 204 201 199 200 199 202 204 208 210 210 208 211 208 210 213 214 211 220 222 217 215 211 206 206 207 210 212 219 220 221 216 229 193 230 231 234 233 235 244 221 233 244 267 271 276 249 244 237 234 233 225 223 228 231 229 231 229 230 224
207 204 195 186 188 188 190 188 192 189 187 185 182 185 190 188 192 196 201 207 212 221 210 199 196 194 206 203 201 199 198 199 204 207 208 210 212 211 211 212 214 214 214 221 224 222 221 218 212 207 207 210 212 213 219 221 220 225 220 197 212 228 231 234 226 229 239 228 250 253 264 279 270 255 241 239 226 229 233 232 235 232 229 231 229
217 211 203 193 189 189 186 185 189 183 181 182 184 187 189 190 195 198 204 209 212 213 210 210 205 198 202 205 201 202 198 200 200 205 207 209 214 212 213 216 216 215 215 218 221 221 223 223 220 214 209 210 211 214 218 222 221 222 221 219 216 206 212 214 218 213 218 228 236 249 256 253 261 283 252 243 236 236 234 234 237 234 229 230 229